Location: Cucq
(50.4773°N, 1.6202°E)
Time: 10:22:20
(UTC+00:00)

CZ-2C R/B - Pass Details

Date: 07 August 2020
Orbit: 501 x 568 km, 97.7° (Epoch: 20 September)

Event Time Altitude Azimuth Distance (km) Brightness Sun altitude
Rises 03:19:00 0° 15° (NNE) 2,729 7.4 -10.2°
Reaches altitude 10° 03:21:10 10° 19° (NNE) 1,820 6.5 -9.9°
Maximum altitude 03:25:05 66° 102° (ESE) 589 3.1 -9.4°
Drops below altitude 10° 03:28:52 10° 185° (S) 1,764 5.0 -9.0°
Enters shadow 03:30:03 - 187° (S) 2,258 5.5 -8.8°
